| time (UTC) | temp C | wind direction | speed KPH | gust KPH | rain 1hr cm | rain 24hr cm | rain mn cm | humidity % | barometer mb |
| 20260509023034 | 12 | 206 | 0.0 | 1.6 | 0.30 | 0.81 | 0.81 | 94 | 1011.3 |
| 20260509020029 | 12 | 211 | 0.0 | 0.0 | 0.30 | 0.66 | 0.66 | 95 | 1011.7 |
| 20260509013028 | 12 | 246 | 6.4 | 8.0 | 0.36 | 0.51 | 0.51 | 93 | 1011.2 |
| 20260509010028 | 12 | 226 | 4.8 | 4.8 | 0.30 | 0.36 | 0.36 | 92 | 1011.0 |
| 20260509003027 | 12 | 221 | 1.6 | 3.2 | 0.18 | 0.28 | 0.28 | 91 | 1010.6 |
| 20260509000026 | 12 | 275 | 6.4 | 8.0 | 0.18 | 0.18 | 0.18 | 89 | 1011.0 |
| 20260508233023 | 12 | 263 | 8.0 | 11.3 | 0.30 | 0.13 | 0.13 | 85 | 1011.0 |
| 20260508230022 | 13 | 312 | 8.0 | 11.3 | 0.13 | 0.03 | 0.03 | 83 | 1011.1 |
| 20260508223017 | 14 | 274 | 19.3 | 24.1 | 0.00 | 0.00 | 0.00 | 70 | 1011.0 |
| 20260508220014 | 16 | 243 | 12.9 | 16.1 | 0.00 | 0.00 | 0.00 | 58 | 1010.3 |
| 20260508213012 | 17 | 188 | 0.0 | 0.0 | 0.00 | 0.00 | 0.00 | 58 | 1010.2 |
| 20260508210010 | 17 | 226 | 0.0 | 0.0 | 0.00 | 0.00 | 0.00 | 58 | 1010.5 |
| 20260508203005 | 17 | 212 | 0.0 | 0.0 | 0.00 | 0.00 | 0.00 | 52 | 1010.7 |
| 20260508200002 | 16 | 229 | 4.8 | 8.0 | 0.00 | 0.00 | 0.00 | 52 | 1011.5 |
| 20260508193001 | 17 | 213 | 8.0 | 11.3 | 0.00 | 0.00 | 0.00 | 51 | 1011.5 |
| 20260508185959 | 17 | 214 | 3.2 | 4.8 | 0.00 | 0.00 | 0.00 | 49 | 1012.3 |
| 20260508182956 | 17 | 197 | 1.6 | 1.6 | 0.00 | 0.00 | 0.00 | 50 | 1012.1 |
| 20260508175953 | 18 | 235 | 9.7 | 12.9 | 0.00 | 0.00 | 0.00 | 46 | 1012.4 |
| 20260508172952 | 17 | 204 | 4.8 | 4.8 | 0.00 | 0.00 | 0.00 | 49 | 1012.8 |
| 20260508165950 | 16 | 196 | 4.8 | 8.0 | 0.00 | 0.00 | 0.00 | 54 | 1013.4 |
| 20260508162949 | 16 | 236 | 8.0 | 9.7 | 0.00 | 0.00 | 0.00 | 52 | 1013.8 |
| 20260508155949 | 16 | 201 | 14.5 | 16.1 | 0.00 | 0.00 | 0.00 | 57 | 1014.1 |
| 20260508152948 | 17 | 201 | 6.4 | 9.7 | 0.00 | 0.00 | 0.00 | 50 | 1014.1 |
| 20260508145944 | 16 | 229 | 4.8 | 9.7 | 0.00 | 0.00 | 0.00 | 57 | 1014.2 |
| 20260508142944 | 15 | 265 | 25.7 | 32.2 | 0.00 | 0.00 | 0.00 | 54 | 1014.5 |
| 20260508135942 | 13 | 210 | 6.4 | 9.7 | 0.00 | 0.00 | 0.00 | 56 | 1014.8 |
| 20260508132941 | 12 | 200 | 4.8 | 4.8 | 0.00 | 0.00 | 0.00 | 57 | 1015.0 |
| 20260508125938 | 11 | 206 | 9.7 | 11.3 | 0.00 | 0.00 | 0.00 | 63 | 1014.8 |
| 20260508122934 | 10 | 270 | 9.7 | 11.3 | 0.00 | 0.00 | 0.00 | 65 | 1015.0 |
| 20260508115930 | 9 | 226 | 1.6 | 1.6 | 0.00 | 0.00 | 0.00 | 68 | 1014.8 |
| 20260508112925 | 8 | 190 | 1.6 | 3.2 | 0.00 | 0.00 | 0.00 | 69 | 1014.4 |
| 20260508105921 | 8 | 198 | 0.0 | 0.0 | 0.00 | 0.00 | 0.00 | 70 | 1014.2 |
| 20260508102921 | 8 | 189 | 1.6 | 1.6 | 0.00 | 0.00 | 0.00 | 71 | 1014.2 |
| 20260508095916 | 7 | 210 | 0.0 | 0.0 | 0.00 | 0.00 | 0.00 | 72 | 1014.3 |
| 20260508092916 | 8 | 215 | 0.0 | 0.0 | 0.00 | 0.00 | 0.00 | 71 | 1014.3 |
| 20260508085911 | 8 | 225 | 0.0 | 0.0 | 0.00 | 0.00 | 0.00 | 70 | 1014.6 |
| 20260508082908 | 8 | 225 | 4.8 | 4.8 | 0.00 | 0.00 | 0.00 | 68 | 1014.6 |
| 20260508075908 | 9 | 207 | 1.6 | 1.6 | 0.00 | 0.00 | 0.00 | 60 | 1014.5 |
| 20260508072904 | 9 | 210 | 0.0 | 1.6 | 0.00 | 0.00 | 0.00 | 61 | 1014.5 |
| 20260508065900 | 9 | 215 | 6.4 | 11.3 | 0.00 | 0.00 | 0.00 | 66 | 1014.7 |
| 20260508062857 | 9 | 211 | 0.0 | 1.6 | 0.00 | 0.00 | 0.00 | 61 | 1015.0 |
| 20260508055855 | 9 | 227 | 1.6 | 1.6 | 0.00 | 0.00 | 0.00 | 64 | 1015.2 |
| 20260508052855 | 9 | 213 | 3.2 | 8.0 | 0.00 | 0.00 | 0.00 | 65 | 1015.1 |
| 20260508045851 | 9 | 221 | 0.0 | 3.2 | 0.00 | 0.00 | 0.00 | 64 | 1014.8 |
| 20260508042850 | 9 | 201 | 1.6 | 3.2 | 0.00 | 0.00 | 0.00 | 64 | 1014.8 |
| 20260508035850 | 8 | 191 | 0.0 | 0.0 | 0.00 | 0.00 | 0.00 | 67 | 1014.7 |
| 20260508032845 | 9 | 187 | 4.8 | 4.8 | 0.00 | 0.00 | 0.00 | 71 | 1015.0 |
| 20260508025844 | 9 | 175 | 4.8 | 4.8 | 0.00 | 0.00 | 0.00 | 72 | 1015.1 |